STARLINK-32636, 62232

Orbit data source: Space-Track

STARLINK-32636, 62232 is a payload satellite owned by SpaceX/Seattle (US) in LEO that was launched on Thu, 05 Dec 2024 UTC via an FALCON 9 launch vehicle from the Air Force Western Test Range (AFWTR). Payload-class satellites include a variety of spacecraft equipped with specific instruments for various scientific and technological missions. These include communications satellites like Starlink; space stations such as the ISS; scientific satellites like the Hubble; Earth observation satellites from companies like Planet Labs, Umbra, and HawkEye 360; GPS; miniature CubeSats for education and research; and military/defense satellites.

Loading next visibility...
Identifier
62232, 2024-231Q
Orbit
LEO
Country
Flag of USUS
Related business
Manufacturer
SpaceX/Seattle
Mission
Operational Commercial Communications
Bus & Motor
STARLINK V2M, Unknown motor
Mass
730 kg wet, ~700 kg dry
Launch date (UTC)
2024-12-05 (2 years ago)
Launch vehicle
FALCON 9
Launch site
Air Force Western Test Range (AFWTR)
Object type
Payload
Rocket body
Debris
Shape & HBR
Box + 2 Pan, 17.7 m
Radar Cross Section
33.884 m², Large (>1 m²)

Expand to show TLE details & history
Last TLE update: 12 hours ago

TLE from 12 hours ago
0 STARLINK-32636
1 62232U 24231Q   26256.76799882  .00026861  00000-0  80364-3 0  9991
2 62232  53.1594  65.3471 0001252  86.5560 273.5586 15.34386109100579
Epoch: 2026-09-13T18:25Z
TLE epoch observation values (Epoch: 2026-09-13T18:25:55.098Z)
Latitude
0.00002°
Longitude
156.10962°
Altitude
463.593 km
Speed
7.636 km/s
True Right ascension
04h 21m 23s
True Declination
0° 00' 00"
Sunlit
Object was in daylight at epoch
Visualization orbit readout
Latitude
Unknown
Longitude
Unknown
Altitude
Unknown
Speed
Unknown
Apparent Right ascension
Unknown
Apparent Declination
Unknown
Sunlit
N/A
Visualization observer readout
Local Sidereal Time
22:41:35
Azimuth
Unknown
Elevation
Unknown
Doppler factor
Unknown
Orbital elements
Apogee altitude
463.858 km
Perigee altitude
462.145 km
Semi-major axis
6,841.139 km
Eccentricity
0.00013
Inclination
53.1594°
RAAN
65.3471°
Arg. of periapsis
86.556°
True anomaly
273.54428°
Mean anomaly
273.5586°
Eccentric anomaly
273.55144°
Mean motion
3.83575 °/min
Orbital period
93.85 mins
BSTAR
0.00080364
Loading maneuver chart data...
Computing Atmospheric mass density...
Loading historical data...
Loading historical data...
Loading historical data...
Loading historical data...
Loading historical data...
Loading historical data...
Loading historical data...

Documentation

Showing up to 5 results
|